Location: Clyde
(45.1830°S, 169.3170°E)
Time: 22:51:12
(UTC+13:00)

Cosmos 1818 - Pass Details

Date: 24 January 2019
Orbit: 771 x 802 km, 65.0° (Epoch: 20 February)

Event Time Altitude Azimuth Distance (km) Brightness Sun altitude
Exits shadow 23:47:55 19° 338° (NNW) 1,781 5.1 -19.4°
Maximum altitude 23:51:46 72° 58° (ENE) 829 3.4 -19.8°
Drops below altitude 10° 23:57:09 10° 141° (SE) 2,351 6.3 -20.3°
Sets 23:59:34 0° 143° (SE) 3,283 7.1 -20.5°
